Location: Newark
(45.4422°N, 16.2769°E)
Time: 22:21:32
(UTC+00:00)

S-56A Canister/Altair - Pass Details

Date: 15 December 2019
Orbit: 634 x 2498 km, 38.9° (Epoch: 28 January)

Event Time Altitude Azimuth Distance (km) Brightness Sun altitude
Rises 15:33:23 0° 280° (W) 6,111 13.0 -4.0°
Reaches altitude 10° 15:41:20 10° 255° (WSW) 4,839 13.2 -5.2°
Maximum altitude 15:45:28 12° 237° (WSW) 4,469 13.2 -5.9°
Drops below altitude 10° 15:49:18 10° 218° (SW) 4,403 12.6 -6.5°
Sets 15:55:38 0° 191° (S) 4,937 12.2 -7.5°
